Regional Weather Roundup
Issued by NWS Jackson, KY

Home | Current Version | Previous Version | Text Only | Print | Product List | Glossary On
Versions: 1 2 3 4 5 6 7 8 9 10 11 12 13 14 15 16 17 18 19 20 21 22 23 24 25 26 27 28 29 30 31 32 33 34 35 36 37 38 39 40 41 42 43 44 45 46 47 48 49
000
ASUS43 KJKL 051010
RWRJKL

EAST KENTUCKY HOURLY WEATHER ROUNDUP
NATIONAL WEATHER SERVICE JACKSON KY
600 AM EDT WED AUG 05 2015

NOTE: "FAIR" INDICATES FEW OR NO CLOUDS BELOW 12,000 FEET WITH
NO SIGNIFICANT WEATHER AND/OR OBSTRUCTIONS TO VISIBILITY.

* THESE REPORTS ARE NOT UNDER NWS QUALITY CONTROL AND MAY NOT
  REPORT WEATHER SUCH AS PRECIPITATION AND FOG.

KYZ079-080-083-085-087-088-110-112-115-119-120-051100
...EASTERN KENTUCKY...

CITY           SKY/WX    TMP DP  RH WIND       PRES   REMARKS
JACKSON        FOG       67  66  97 CALM      30.07R VSB 1/2
LONDON         CLOUDY    68  64  87 E5        30.05R FOG
SOMERSET*      MOCLDY    64  64 100 CALM      30.05S FOG
MONTICELLO*    CLOUDY    69  69 100 CALM      30.07R
MIDDLESBORO*   MOCLDY    67  66  97 CALM      30.08R
HAZARD APT*    FOG       66  66 100 CALM      30.07  VSB 0
PIKEVILLE APT* FOG       66  66 100 CALM      30.08R VSB 1/2
BIG SANDY*     FOG       67  67  99 CALM      30.06S VSB 1
MOREHEAD APT*  PTSUNNY   68  66  94 CALM      30.08S
$$

KYZ035-036-041-042-044-050-067-078-099-051100
...CENTRAL KENTUCKY...

CITY           SKY/WX    TMP DP  RH WIND       PRES   REMARKS
MT STERLING*   MOCLDY    64  64 100 CALM      30.07S
FLEMING/MASON* CLEAR     64  64 100 SW3       30.06S FOG
DANVILLE*      CLOUDY    66  64  94 CALM      30.07R
RICHMOND*      CLOUDY    66  64  94 CALM      30.05S
LEXINGTON      MOCLDY    66  64  93 CALM      30.06S
FRANKFORT      PTCLDY    66  64  93 CALM      30.04S
$$

KYZ091>093-OHZ055-061-077-WVZ005-015-034-035-042-051100
...SOUTHERN OHIO/WEST VIRGINIA...

CITY           SKY/WX    TMP DP  RH WIND       PRES   REMARKS
COVINGTON      PTCLDY    64  61  90 CALM      30.05R
COLUMBUS       PTCLDY    62  58  86 CALM      30.02R
DAYTON         PTCLDY    63  58  83 CALM      30.06R
WILMINGTON     PTCLDY    61  58  90 CALM      30.05R
HUNTINGTON     CLOUDY    67  66  97 SW3       30.03S
CHARLESTON     CLOUDY    70  66  87 W5        30.03S
PINEVILLE*     CLOUDY    65  65 100 MISG      30.13R FOG
BECKLEY        CLOUDY    66  63  90 SW5       30.10S
BLUEFIELD      CLOUDY    67  61  81 W5        30.13R
$$

VAZ002-007-008-TNZ017-027-036-066-071-051100
...SOUTHWEST VIRGINIA/EAST TENNESSEE...

CITY           SKY/WX    TMP DP  RH WIND       PRES   REMARKS
WISE*          MOCLDY    66  64  94 SW3       30.15R
ABINGDON*      MOCLDY    67  64  90 CALM      30.11R
BRISTOL        MOCLDY    65  64  97 CALM      30.08R FOG
KNOXVILLE      CLOUDY    72  65  78 N5        30.03R
OAK RIDGE      CLOUDY    73  68  84 CALM      30.05S
CROSSVILLE     MOCLDY    70  66  87 CALM      30.09S
NASHVILLE      MOCLDY    75  71  87 S3        30.00S
$$

...KEY TO REMARKS...
VSB - VISIBILITY IN MILES
WCI - WIND CHILL INDEX
HX  - HEAT INDEX

$$



USA.gov is the U.S. government's official web portal to all federal, state and local government web resources and services.